Weather History for Erie, PA

Change the Weather History Date:

Wednesday, October 26, 2011

  Actual Average Record
Temperature  
Mean Temperature 54 °F 50 °F  
Max Temperature 61 °F 58 °F 79 °F (1991)
Min Temperature 47 °F 42 °F 26 °F (1887)
Degree Days  
Heating Degree Days 11 15  
Month to date heating degree days 246 300  
Since 1 July heating degree days 319 424  
Cooling Degree Days 0 0  
Month to date cooling degree days 5 7  
Year to date cooling degree days 830 636  
Growing Degree Days 4 (Base 50)    
Moisture  
Dew Point 49 °F    
Average Humidity 76    
Maximum Humidity 93    
Minimum Humidity 59    
Precipitation  
Precipitation 0.58 in 0.12 in 1.12 in (1932)
Month to date precipitation 6.28 3.43  
Year to date precipitation 47.49 33.87  
Snow  
Snow 0.00 in 0.00 in - ()
Month to date snowfall 0.0 0.1  
Since 1 July snowfall 0.0 0.1  
Since 1 September snowfall 0.0 0.1  
Snow Depth 0.00 in    
Sea Level Pressure  
Sea Level Pressure 29.80 in    
Wind  
Wind Speed 10 mph (WSW)    
Max Wind Speed 20 mph    
Max Gust Speed 28 mph    
Visibility 8 miles    
Events Rain    
T = Trace of Precipitation, MM = Missing Value Source: NWS Daily Summary

Daily Weather History Graph

Daily Weather History Graph

Search for Another Location

Airport:

Trip Planner

Search our weather history database for the weather conditions in past years. The results will help you decide how hot, cold, wet, or windy it might be!

Date:

Astronomy

Oct. 26, 2011 Rise Set
Actual Time 7:45 AM EDT 6:22 PM EDT
Civil Twilight 7:17 AM EDT 6:51 PM EDT
Nautical Twilight 6:44 AM EDT 7:24 PM EDT
Astronomical Twilight 6:12 AM EDT 7:56 PM EDT
Moon 7:32 AM EDT (10/26) 6:02 PM EDT (10/26)
Length of Visible Light 11h 34m
Length of Day
10h 37m
Waning Crescent, 0% of the Moon is Illuminated
Oct 26
Waning Crescent
Oct 26
New
Nov 2
First Quarter
Nov 10
Full
Nov 18
Last Quarter

Hourly Weather History & Observations

Time (EDT) Temp. Dew Point Humidity Pressure Visibility Wind Dir Wind Speed Gust Speed Precip Events Conditions
12:51 AM 50.0 °F 41.0 °F 71% 29.89 in 10.0 mi SSE 4.6 mph - N/A   Clear
1:51 AM 54.0 °F 39.0 °F 57% 29.88 in 10.0 mi South 8.1 mph - N/A   Mostly Cloudy
2:51 AM 52.0 °F 45.0 °F 77% 29.88 in 6.0 mi SSW 9.2 mph - 0.04 in Rain Light Rain
3:51 AM 52.0 °F 48.0 °F 86% 29.85 in 7.0 mi South 12.7 mph - 0.07 in Rain Light Rain
4:51 AM 52.0 °F 48.9 °F 89% 29.84 in 4.0 mi South 10.4 mph - 0.12 in Rain Rain
5:51 AM 53.1 °F 48.9 °F 86% 29.81 in 10.0 mi SSW 18.4 mph 27.6 mph 0.08 in Rain Light Rain
6:51 AM 54.0 °F 51.1 °F 90% 29.80 in 10.0 mi SSW 13.8 mph - 0.05 in Rain Light Rain
7:51 AM 54.0 °F 50.0 °F 86% 29.79 in 10.0 mi SSW 9.2 mph - 0.00 in   Overcast
8:51 AM 54.0 °F 50.0 °F 86% 29.81 in 10.0 mi SSW 12.7 mph - N/A   Overcast
9:51 AM 55.0 °F 51.1 °F 86% 29.82 in 10.0 mi SSW 9.2 mph - 0.00 in   Overcast
10:51 AM 57.0 °F 51.1 °F 81% 29.78 in 10.0 mi South 12.7 mph - N/A   Scattered Clouds
11:51 AM 60.1 °F 51.1 °F 72% 29.78 in 10.0 mi SSW 11.5 mph - N/A   Overcast
12:51 PM 60.1 °F 51.1 °F 72% 29.79 in 10.0 mi SW 8.1 mph - N/A   Overcast
1:51 PM 61.0 °F 51.1 °F 70% 29.75 in 10.0 mi WSW 4.6 mph - N/A   Overcast
2:00 PM 60.8 °F 51.8 °F 72% 29.75 in 10.0 mi WSW 5.8 mph - N/A   Overcast
2:51 PM 59.0 °F 51.1 °F 75% 29.76 in 10.0 mi West 6.9 mph - N/A   Overcast
3:51 PM 57.0 °F 52.0 °F 83% 29.77 in 10.0 mi West 6.9 mph - N/A   Overcast
4:11 PM 55.4 °F 51.8 °F 88% 29.76 in 9.0 mi North 6.9 mph - N/A   Overcast
4:24 PM 55.4 °F 51.8 °F 88% 29.77 in 7.0 mi North 5.8 mph - N/A   Overcast
4:51 PM 54.0 °F 51.1 °F 90% 29.78 in 4.0 mi NNE 5.8 mph - 0.00 in Rain Light Rain
5:51 PM 53.1 °F 51.1 °F 93% 29.78 in 4.0 mi North 4.6 mph - 0.00 in   Overcast
6:03 PM 51.8 °F 50.0 °F 94% 29.78 in 3.0 mi North 5.8 mph - N/A   Overcast
6:51 PM 51.1 °F 48.9 °F 92% 29.80 in 4.0 mi North 11.5 mph 16.1 mph N/A   Overcast
7:51 PM 50.0 °F 48.0 °F 93% 29.79 in 4.0 mi NNE 9.2 mph - N/A   Overcast
8:23 PM 50.0 °F 48.2 °F 94% 29.79 in 2.5 mi NNE 9.2 mph - 0.00 in Rain Light Rain
8:33 PM 50.0 °F 48.2 °F 94% 29.79 in 3.0 mi NNE 8.1 mph - 0.01 in Rain Light Rain
8:51 PM 48.9 °F 48.0 °F 97% 29.78 in 4.0 mi ENE 10.4 mph - 0.06 in Rain Rain
9:51 PM 50.0 °F 48.0 °F 93% 29.78 in 10.0 mi NNE 8.1 mph - 0.01 in   Overcast
10:51 PM 48.0 °F 46.0 °F 93% 29.79 in 8.0 mi NNE 10.4 mph - 0.09 in Rain Light Rain
11:51 PM 48.0 °F 46.0 °F 93% 29.81 in 8.0 mi NNE 13.8 mph - 0.03 in Rain Light Rain